FW2048 Weather Reports


time (UTC)temp
F
wind
direction
speed
knots
gust
knots
rain 1hr
in
rain 24hr
in
rain mn
in
humidity
%
barometer
mb
20260906150053 85 0 0.9 3.5 0.00 0.00 0.00 67 1010.4
20260906144602 82 178 0.0 2.6 0.00 0.00 0.00 72 1010.4
20260906143044 79 86 0.0 2.6 0.00 0.00 0.00 76 1010.4
20260906141551 77 22 0.0 2.6 0.00 0.00 0.00 81 1010.4
20260906140045 75 0 0.0 2.6 0.00 0.00 0.00 85 1010.2
20260906134556 75 0 0.0 0.0 0.00 0.00 0.00 87 1010.0
20260906133046 74 0 0.0 0.0 0.00 0.00 0.00 87 1010.0
20260906131552 73 0 0.0 0.0 0.00 0.00 0.00 86 1010.1
20260906130100 73 0 0.0 0.0 0.00 0.00 0.00 85 1010.0
20260906124550 73 0 0.0 0.0 0.00 0.00 0.00 85 1009.9
20260906123046 73 0 0.0 0.0 0.00 0.00 0.00 84 1009.7
20260906121545 73 0 0.0 0.0 0.00 0.00 0.00 84 1009.4
20260906120055 73 0 0.0 0.0 0.00 0.00 0.00 83 1009.5
20260906114557 73 0 0.0 0.0 0.00 0.00 0.00 82 1009.3
20260906113054 73 0 0.0 1.7 0.00 0.00 0.00 82 1009.3
20260906111545 73 0 0.0 1.7 0.00 0.00 0.00 82 1009.1
20260906110045 73 97 0.9 2.6 0.00 0.00 0.00 81 1009.1
20260906104549 73 111 0.9 2.6 0.00 0.00 0.00 82 1008.9
20260906103047 73 102 0.9 2.6 0.00 0.00 0.00 82 1008.8
20260906101553 73 0 0.0 0.9 0.00 0.00 0.00 81 1008.6
20260906100052 73 0 0.0 0.0 0.00 0.00 0.00 80 1008.5
20260906094548 74 0 0.0 0.0 0.00 0.00 0.00 80 1008.5
20260906093046 74 0 0.0 0.0 0.00 0.00 0.00 79 1008.4
20260906091551 74 0 0.0 0.0 0.00 0.00 0.00 79 1008.5
20260906090049 74 0 0.0 0.0 0.00 0.00 0.00 79 1008.4
20260906084546 74 0 0.0 0.0 0.00 0.00 0.00 79 1008.2
20260906083048 74 0 0.0 0.0 0.00 0.00 0.00 78 1008.4
20260906081557 75 0 0.0 0.0 0.00 0.00 0.00 78 1008.3
20260906080052 75 0 0.0 0.0 0.00 0.00 0.00 78 1008.3
20260906074604 75 0 0.0 0.0 0.00 0.00 0.00 78 1008.4
20260906073045 75 0 0.0 0.0 0.00 0.00 0.00 78 1008.6
20260906071555 75 0 0.0 0.0 0.00 0.00 0.00 77 1008.7
20260906070052 75 0 0.0 0.0 0.00 0.00 0.00 78 1008.7
20260906064546 76 0 0.0 0.0 0.00 0.00 0.00 77 1008.8
20260906063046 76 0 0.0 0.0 0.00 0.00 0.00 77 1008.8
20260906061550 76 0 0.0 0.0 0.00 0.00 0.00 77 1008.9
20260906060052 76 0 0.0 0.0 0.00 0.00 0.00 76 1008.9
20260906054547 77 0 0.0 0.0 0.00 0.00 0.00 76 1008.9
20260906053054 77 0 0.0 0.9 0.00 0.00 0.00 75 1009.0
20260906051601 77 79 0.0 1.7 0.00 0.00 0.00 75 1008.8
20260906050055 77 0 0.0 1.7 0.00 0.00 0.00 75 1008.7
20260906044545 78 79 0.0 1.7 0.00 0.00 0.00 74 1008.6
20260906043053 78 0 0.0 0.0 0.00 0.00 0.00 74 1008.5
20260906041552 78 0 0.0 1.7 0.00 0.00 0.00 72 1008.8
20260906040050 79 76 0.0 0.9 0.00 0.00 0.00 72 1008.6
20260906034545 79 0 0.0 0.0 0.00 0.00 0.00 71 1008.7
20260906033053 80 0 0.0 0.0 0.00 0.00 0.00 70 1008.7
20260906031559 80 0 0.0 0.0 0.00 0.00 0.00 70 1008.6
20260906030048 81 0 0.0 0.0 0.00 0.00 0.00 69 1008.7
20260906024547 81 0 0.0 0.9 0.00 0.00 0.00 68 1008.6
20260906023044 82 0 0.0 0.0 0.00 0.00 0.00 67 1008.2
20260906021550 83 0 0.0 0.9 0.00 0.00 0.00 66 1008.1
20260906020056 83 76 0.0 0.9 0.00 0.00 0.00 64 1008.0
20260906014546 85 76 0.0 1.7 0.00 0.00 0.00 63 1007.7
20260906013045 85 74 0.9 1.7 0.00 0.00 0.00 61 1007.6
20260906011545 87 0 0.0 0.0 0.00 0.00 0.00 58 1007.5
20260906010055 89 0 0.0 1.7 0.00 0.00 0.00 56 1007.3
20260906004550 90 0 0.0 1.7 0.00 0.00 0.00 54 1007.3
20260906003054 92 0 0.0 1.7 0.00 0.00 0.00 51 1007.3
20260906001545 93 96 0.0 1.7 0.00 0.00 0.00 48 1007.3
20260906000053 94 0 0.0 4.3 0.00 0.00 0.00 45 1007.4
20260905234547 97 79 0.9 2.6 0.00 0.00 0.00 44 1007.5
20260905233053 99 101 0.0 1.7 0.00 0.00 0.00 41 1007.3
20260905231546 101 158 0.0 2.6 0.00 0.00 0.00 38 1007.2
20260905230056 102 105 0.9 2.6 0.00 0.00 0.00 38 1007.0
20260905224601 102 191 0.0 1.7 0.00 0.00 0.00 36 1007.0
20260905223047 103 0 0.0 3.5 0.00 0.00 0.00 32 1006.8
20260905221556 102 0 1.7 4.3 0.00 0.00 0.00 32 1006.9
20260905220104 104 173 0.9 2.6 0.00 0.00 0.00 31 1006.8
20260905214547 104 315 0.9 3.5 0.00 0.00 0.00 30 1006.9
20260905213049 104 291 1.7 3.5 0.00 0.00 0.00 30 1006.9
20260905211612 104 11 1.7 3.5 0.00 0.00 0.00 31 1007.0
20260905210054 104 0 1.7 3.5 0.00 0.00 0.00 31 1007.1
20260905204557 104 45 0.9 4.3 0.00 0.00 0.00 30 1007.3
20260905203110 103 300 0.9 6.1 0.00 0.00 0.00 31 1007.5
20260905201546 101 223 1.7 4.3 0.00 0.00 0.00 32 1007.8
20260905200058 102 344 0.0 2.6 0.00 0.00 0.00 33 1008.1
20260905194549 103 62 0.9 4.3 0.00 0.00 0.00 31 1008.4
20260905193044 104 234 0.9 4.3 0.00 0.00 0.00 31 1008.6
20260905191545 104 114 0.9 4.3 0.00 0.00 0.00 31 1008.7
20260905190049 103 202 0.9 3.5 0.00 0.00 0.00 31 1008.8
20260905184550 102 0 1.7 5.2 0.00 0.00 0.00 33 1009.0
20260905183045 101 108 0.9 2.6 0.00 0.00 0.00 35 1009.3
20260905181605 100 352 1.7 2.6 0.00 0.00 0.00 35 1009.4
20260905180051 99 161 0.9 4.3 0.00 0.00 0.00 38 1009.6
20260905174551 99 167 0.9 4.3 0.00 0.00 0.00 37 1009.8
20260905173056 98 63 0.9 3.5 0.00 0.00 0.00 38 1009.9
20260905171552 97 41 0.9 4.3 0.00 0.00 0.00 41 1010.1
20260905170053 96 334 1.7 2.6 0.00 0.00 0.00 42 1010.2
20260905164546 95 11 1.7 4.3 0.00 0.00 0.00 47 1010.5
20260905163054 92 103 0.9 5.2 0.00 0.00 0.00 50 1010.4
20260905161545 92 327 0.9 6.1 0.00 0.00 0.00 51 1010.7
20260905160115 91 5 0.9 5.2 0.00 0.00 0.00 52 1010.8
20260905154549 91 88 0.9 6.1 0.00 0.00 0.00 53 1010.8
20260905153044 90 90 1.7 6.1 0.00 0.00 0.00 54 1010.9
20260905151547 90 39 0.9 4.3 0.00 0.00 0.00 56 1010.8